UKV5035 RJSS-RJTT

Flight info

Callsign UKV5035
Flight time 0h 44m
Altitude 26000
Route IXE Y88 DAIGO Y10 GODIN
Aircraft A321/M-SDE3FGHIRWY/LB1

Departure

Time 2026-05-06 16:55
Airport Sendai Airport (RJSS)

Arrival

Time 2026-05-06 17:40
Airport Tokyo Haneda International Airport (RJTT)
Time Latitude Longitude Altitude Speed Heading
2026-05-06 16:30 38.13886 140.92929 13 ft 0 kts 172°
2026-05-06 16:50 38.13889 140.92928 12 ft 3 kts 172°
2026-05-06 16:50 38.13914 140.92924 13 ft 4 kts 172°
2026-05-06 16:50 38.13927 140.92922 14 ft 3 kts 172°
2026-05-06 16:51 38.13962 140.92912 12 ft 4 kts 159°
2026-05-06 16:51 38.13986 140.92897 15 ft 4 kts 144°
2026-05-06 16:51 38.14000 140.92882 14 ft 1 kts 134°
2026-05-06 16:51 38.14002 140.92880 14 ft 0 kts 134°
2026-05-06 16:53 38.14004 140.92895 13 ft 6 kts 69°
2026-05-06 16:53 38.14025 140.92982 13 ft 12 kts 75°
2026-05-06 16:54 38.14043 140.93120 13 ft 19 kts 82°
2026-05-06 16:54 38.14078 140.93267 13 ft 17 kts 44°
2026-05-06 16:54 38.14182 140.93265 16 ft 15 kts 338°
2026-05-06 16:54 38.14213 140.93126 16 ft 28 kts 263°
2026-05-06 16:55 38.14152 140.92568 20 ft 99 kts 262°
2026-05-06 16:55 38.14036 140.91433 18 ft 155 kts 262°
2026-05-06 16:55 38.13884 140.90014 456 ft 163 kts 262°
2026-05-06 16:55 38.13585 140.88623 931 ft 168 kts 236°
2026-05-06 16:56 38.12673 140.87689 1301 ft 175 kts 202°
2026-05-06 16:56 38.11440 140.87544 1688 ft 187 kts 169°
2026-05-06 16:56 38.10280 140.88382 2052 ft 204 kts 131°
2026-05-06 16:56 38.09728 140.90110 2365 ft 227 kts 91°
2026-05-06 16:57 38.09873 140.92216 2663 ft 251 kts 83°
2026-05-06 16:57 38.10146 140.94488 3132 ft 266 kts 82°
2026-05-06 16:57 38.10454 140.96826 3818 ft 271 kts 82°
2026-05-06 16:57 38.10742 140.99208 4531 ft 274 kts 89°
2026-05-06 16:58 38.10429 141.01573 5198 ft 274 kts 112°
2026-05-06 16:58 38.09768 141.03850 5881 ft 278 kts 113°
2026-05-06 16:58 38.09057 141.06170 6543 ft 284 kts 114°
2026-05-06 16:58 38.08334 141.08485 7180 ft 288 kts 114°
2026-05-06 16:59 38.07591 141.10863 7858 ft 291 kts 114°
2026-05-06 16:59 38.06843 141.13266 8535 ft 295 kts 114°
2026-05-06 16:59 38.06090 141.15702 9221 ft 298 kts 114°
2026-05-06 16:59 38.05329 141.18166 9901 ft 302 kts 114°
2026-05-06 17:00 38.04553 141.20672 10359 ft 313 kts 114°
2026-05-06 17:00 38.03631 141.23275 10488 ft 333 kts 123°
2026-05-06 17:00 38.02149 141.25603 10696 ft 346 kts 140°
2026-05-06 17:00 38.00127 141.27357 10861 ft 359 kts 158°
2026-05-06 17:01 37.97741 141.28266 11321 ft 360 kts 175°
2026-05-06 17:01 37.95243 141.28253 11874 ft 359 kts 192°
2026-05-06 17:01 37.92811 141.27501 12491 ft 361 kts 197°
2026-05-06 17:01 37.90381 141.26669 13121 ft 364 kts 198°
2026-05-06 17:02 37.87931 141.25811 13734 ft 367 kts 199°
2026-05-06 17:02 37.85476 141.24884 14297 ft 369 kts 200°
2026-05-06 17:02 37.83015 141.23912 14847 ft 372 kts 200°
2026-05-06 17:02 37.81373 141.23253 15215 ft 374 kts 200°
2026-05-06 17:03 37.78883 141.22257 15763 ft 377 kts 200°
2026-05-06 17:03 37.76371 141.21258 16324 ft 380 kts 200°
2026-05-06 17:03 37.73832 141.20256 16872 ft 383 kts 200°
2026-05-06 17:03 37.71269 141.19254 17417 ft 386 kts 200°
2026-05-06 17:04 37.68689 141.18255 17961 ft 390 kts 200°
2026-05-06 17:04 37.66080 141.17247 18479 ft 393 kts 200°
2026-05-06 17:04 37.63453 141.16232 18930 ft 396 kts 200°
2026-05-06 17:04 37.60805 141.15210 19370 ft 400 kts 200°
2026-05-06 17:05 37.58163 141.14192 19797 ft 403 kts 200°
2026-05-06 17:05 37.55465 141.13157 20226 ft 407 kts 201°
2026-05-06 17:05 37.52745 141.12111 20629 ft 410 kts 201°
2026-05-06 17:05 37.50005 141.11053 21034 ft 413 kts 201°
2026-05-06 17:06 37.47242 141.09983 21419 ft 417 kts 201°
2026-05-06 17:06 37.44462 141.08911 21811 ft 420 kts 201°
2026-05-06 17:06 37.41656 141.07829 22196 ft 423 kts 201°
2026-05-06 17:06 37.38829 141.06738 22576 ft 426 kts 201°
2026-05-06 17:07 37.35980 141.05642 22953 ft 429 kts 201°
2026-05-06 17:07 37.33111 141.04542 23315 ft 433 kts 201°
2026-05-06 17:07 37.30221 141.03435 23658 ft 436 kts 201°
2026-05-06 17:07 37.27310 141.02322 23983 ft 438 kts 201°
2026-05-06 17:08 37.24390 141.01204 24316 ft 440 kts 201°
2026-05-06 17:08 37.21456 141.00081 24649 ft 442 kts 201°
2026-05-06 17:08 37.18548 140.98846 24973 ft 440 kts 207°
2026-05-06 17:08 37.15850 140.97084 25292 ft 436 kts 217°
2026-05-06 17:09 37.13440 140.94805 25615 ft 433 kts 226°
2026-05-06 17:09 37.11370 140.92084 25923 ft 430 kts 234°
2026-05-06 17:09 37.09497 140.89158 26067 ft 430 kts 234°
2026-05-06 17:09 37.07629 140.86246 26092 ft 428 kts 234°
2026-05-06 17:10 37.05757 140.83340 26094 ft 428 kts 234°
2026-05-06 17:10 37.03884 140.80441 26095 ft 428 kts 234°
2026-05-06 17:10 37.02013 140.77546 26103 ft 428 kts 234°
2026-05-06 17:10 37.00146 140.74646 26090 ft 428 kts 234°
2026-05-06 17:11 36.98285 140.71750 26101 ft 427 kts 234°
2026-05-06 17:11 36.96448 140.68898 26099 ft 426 kts 234°
2026-05-06 17:11 36.94586 140.66012 26098 ft 427 kts 234°
2026-05-06 17:11 36.92735 140.63147 25312 ft 419 kts 234°
2026-05-06 17:12 36.90892 140.60304 23696 ft 423 kts 234°
2026-05-06 17:12 36.89042 140.57452 22180 ft 419 kts 234°
2026-05-06 17:12 36.87257 140.54706 21716 ft 391 kts 234°
2026-05-06 17:12 36.85605 140.52174 21498 ft 364 kts 234°
2026-05-06 17:13 36.84015 140.49729 21054 ft 366 kts 234°
2026-05-06 17:13 36.82411 140.47253 20605 ft 369 kts 234°
2026-05-06 17:13 36.80798 140.44766 20122 ft 368 kts 233°
2026-05-06 17:13 36.79194 140.42296 19687 ft 365 kts 233°
2026-05-06 17:14 36.77599 140.39844 19250 ft 362 kts 233°
2026-05-06 17:14 36.75883 140.37551 18795 ft 362 kts 224°
2026-05-06 17:14 36.73817 140.35746 18310 ft 364 kts 212°
2026-05-06 17:14 36.71477 140.34519 17764 ft 367 kts 200°
2026-05-06 17:15 36.68963 140.33882 17199 ft 369 kts 192°
2026-05-06 17:15 36.66438 140.33392 16728 ft 365 kts 193°
2026-05-06 17:15 36.63941 140.32897 16255 ft 362 kts 193°
2026-05-06 17:15 36.61419 140.32387 16077 ft 373 kts 193°
2026-05-06 17:16 36.58839 140.31858 16097 ft 378 kts 193°
2026-05-06 17:16 36.56238 140.31325 16098 ft 380 kts 193°
2026-05-06 17:16 36.53609 140.30790 15396 ft 387 kts 192°
2026-05-06 17:16 36.50987 140.30263 14929 ft 383 kts 192°
2026-05-06 17:17 36.48389 140.29750 14685 ft 373 kts 192°
2026-05-06 17:17 36.45835 140.29246 14451 ft 371 kts 192°
2026-05-06 17:17 36.43292 140.28741 14210 ft 369 kts 192°
2026-05-06 17:17 36.40759 140.28237 13979 ft 368 kts 192°
2026-05-06 17:18 36.38234 140.27733 13720 ft 367 kts 192°
2026-05-06 17:18 36.35718 140.27230 13501 ft 365 kts 192°
2026-05-06 17:18 36.33213 140.26728 13477 ft 365 kts 192°
2026-05-06 17:18 36.30709 140.26226 13423 ft 364 kts 192°
2026-05-06 17:19 36.28204 140.25725 13367 ft 364 kts 192°
2026-05-06 17:19 36.25695 140.25227 13306 ft 364 kts 192°
2026-05-06 17:19 36.23194 140.24730 13113 ft 363 kts 192°
2026-05-06 17:19 36.20706 140.24235 12940 ft 361 kts 192°
2026-05-06 17:20 36.18229 140.23742 12665 ft 359 kts 192°
2026-05-06 17:20 36.15766 140.23256 12426 ft 357 kts 192°
2026-05-06 17:20 36.13321 140.22771 12170 ft 355 kts 193°
2026-05-06 17:20 36.10918 140.22295 11918 ft 353 kts 193°
2026-05-06 17:21 36.08502 140.21815 11674 ft 351 kts 193°
2026-05-06 17:21 36.06102 140.21341 11425 ft 348 kts 193°
2026-05-06 17:21 36.03749 140.20900 11272 ft 334 kts 192°
2026-05-06 17:21 36.01496 140.20550 11188 ft 319 kts 190°
2026-05-06 17:22 35.99260 140.20237 11053 ft 334 kts 190°
2026-05-06 17:22 35.96919 140.19917 10996 ft 341 kts 190°
2026-05-06 17:22 35.94542 140.19598 11009 ft 344 kts 190°
2026-05-06 17:22 35.92161 140.19276 11009 ft 345 kts 189°
2026-05-06 17:23 35.89780 140.18948 11005 ft 345 kts 189°
2026-05-06 17:23 35.87390 140.18619 11004 ft 345 kts 189°
2026-05-06 17:23 35.85007 140.18287 11003 ft 345 kts 190°
2026-05-06 17:23 35.82621 140.17954 11009 ft 345 kts 189°
2026-05-06 17:24 35.80232 140.17621 11007 ft 345 kts 190°
2026-05-06 17:24 35.77850 140.17286 10997 ft 345 kts 190°
2026-05-06 17:24 35.75491 140.16953 11004 ft 345 kts 190°
2026-05-06 17:24 35.73108 140.16618 11001 ft 345 kts 190°
2026-05-06 17:25 35.70728 140.16286 11014 ft 345 kts 190°
2026-05-06 17:25 35.68307 140.15946 11001 ft 345 kts 190°
2026-05-06 17:25 35.65954 140.15616 11008 ft 345 kts 190°
2026-05-06 17:25 35.63573 140.15280 11010 ft 345 kts 190°
2026-05-06 17:26 35.61186 140.14944 10997 ft 346 kts 189°
2026-05-06 17:26 35.58761 140.14602 10995 ft 346 kts 189°
2026-05-06 17:26 35.56394 140.14271 10996 ft 346 kts 189°
2026-05-06 17:26 35.53998 140.13936 10992 ft 346 kts 189°
2026-05-06 17:27 35.51602 140.13603 10999 ft 346 kts 189°
2026-05-06 17:27 35.49206 140.13275 11002 ft 347 kts 189°
2026-05-06 17:27 35.46811 140.12948 10994 ft 346 kts 189°
2026-05-06 17:27 35.44413 140.12617 11002 ft 347 kts 189°
2026-05-06 17:28 35.42018 140.12283 10995 ft 347 kts 189°
2026-05-06 17:28 35.39614 140.11946 10995 ft 348 kts 189°
2026-05-06 17:28 35.37209 140.11612 11001 ft 348 kts 189°
2026-05-06 17:28 35.34803 140.11280 10997 ft 348 kts 189°
2026-05-06 17:29 35.32397 140.10948 10988 ft 348 kts 189°
2026-05-06 17:29 35.29994 140.10617 10992 ft 348 kts 189°
2026-05-06 17:29 35.27593 140.10283 10993 ft 347 kts 189°
2026-05-06 17:29 35.25200 140.09899 10774 ft 341 kts 196°
2026-05-06 17:30 35.23098 140.08792 10641 ft 321 kts 217°
2026-05-06 17:30 35.21563 140.06941 10521 ft 304 kts 237°
2026-05-06 17:30 35.20700 140.04651 10399 ft 291 kts 255°
2026-05-06 17:30 35.20505 140.02236 10278 ft 282 kts 269°
2026-05-06 17:31 35.20519 139.99872 10068 ft 274 kts 268°
2026-05-06 17:31 35.20527 139.97593 9995 ft 272 kts 268°
2026-05-06 17:31 35.20530 139.95258 9574 ft 277 kts 268°
2026-05-06 17:31 35.20532 139.92909 9191 ft 276 kts 268°
2026-05-06 17:32 35.20531 139.90564 8842 ft 274 kts 268°
2026-05-06 17:32 35.20532 139.88244 8475 ft 272 kts 268°
2026-05-06 17:32 35.20533 139.85943 7956 ft 270 kts 268°
2026-05-06 17:32 35.20830 139.83671 7495 ft 275 kts 288°
2026-05-06 17:33 35.21857 139.81714 7132 ft 281 kts 312°
2026-05-06 17:33 35.23532 139.80419 6758 ft 288 kts 338°
2026-05-06 17:33 35.25474 139.79765 6360 ft 290 kts 342°
2026-05-06 17:33 35.27428 139.79151 5973 ft 289 kts 342°
2026-05-06 17:34 35.29382 139.78587 5620 ft 288 kts 349°
2026-05-06 17:34 35.31375 139.78610 4979 ft 288 kts
2026-05-06 17:34 35.33257 139.79419 4289 ft 287 kts 29°
2026-05-06 17:34 35.34834 139.80785 4052 ft 277 kts 36°
2026-05-06 17:35 35.36314 139.82138 3994 ft 256 kts 36°
2026-05-06 17:35 35.37701 139.83387 4000 ft 242 kts 35°
2026-05-06 17:35 35.39010 139.84558 4010 ft 221 kts 35°
2026-05-06 17:36 35.41338 139.86400 3953 ft 183 kts 19°
2026-05-06 17:36 35.42510 139.86811 3662 ft 172 kts
2026-05-06 17:36 35.43685 139.86896 3213 ft 167 kts 354°
2026-05-06 17:36 35.44826 139.86750 2772 ft 162 kts 341°
2026-05-06 17:37 35.45834 139.86214 2348 ft 156 kts 327°
2026-05-06 17:37 35.46786 139.85579 1935 ft 155 kts 327°
2026-05-06 17:37 35.47718 139.84933 1584 ft 154 kts 328°
2026-05-06 17:37 35.48642 139.84288 1275 ft 152 kts 327°
2026-05-06 17:38 35.49554 139.83640 1097 ft 151 kts 327°
2026-05-06 17:38 35.50462 139.83002 916 ft 150 kts 329°
2026-05-06 17:38 35.51359 139.82365 726 ft 149 kts 328°
2026-05-06 17:38 35.52247 139.81726 542 ft 147 kts 328°
2026-05-06 17:39 35.53132 139.81099 295 ft 146 kts 328°
2026-05-06 17:39 35.53995 139.80489 97 ft 144 kts 328°
2026-05-06 17:39 35.54830 139.79897 26 ft 126 kts 329°
2026-05-06 17:39 35.55451 139.79463 24 ft 78 kts 330°
2026-05-06 17:40 35.55758 139.79237 26 ft 12 kts 311°
2026-05-06 17:40 35.55783 139.79128 24 ft 15 kts 299°
2026-05-06 17:40 35.55832 139.79015 23 ft 11 kts 287°
2026-05-06 17:40 35.55782 139.78991 23 ft 9 kts 167°
2026-05-06 17:41 35.55717 139.79018 23 ft 10 kts 153°
2026-05-06 17:41 35.55651 139.79065 23 ft 12 kts 149°
2026-05-06 17:41 35.55578 139.79119 23 ft 13 kts 149°
2026-05-06 17:41 35.55508 139.79167 23 ft 14 kts 151°
2026-05-06 17:42 35.55422 139.79229 23 ft 15 kts 150°
2026-05-06 17:42 35.55330 139.79294 25 ft 15 kts 149°
2026-05-06 17:42 35.55234 139.79362 23 ft 16 kts 150°
2026-05-06 17:42 35.55132 139.79434 23 ft 18 kts 149°
2026-05-06 17:43 35.55035 139.79503 23 ft 18 kts 150°
2026-05-06 17:43 35.54928 139.79579 23 ft 16 kts 150°
2026-05-06 17:43 35.54828 139.79650 23 ft 17 kts 150°
2026-05-06 17:43 35.54729 139.79680 25 ft 14 kts 206°
2026-05-06 17:44 35.54683 139.79587 24 ft 13 kts 236°
2026-05-06 17:44 35.54633 139.79489 24 ft 14 kts 239°
2026-05-06 17:44 35.54581 139.79381 24 ft 15 kts 239°
2026-05-06 17:44 35.54525 139.79264 26 ft 16 kts 239°
2026-05-06 17:45 35.54467 139.79141 27 ft 17 kts 240°
2026-05-06 17:45 35.54410 139.79017 25 ft 17 kts 240°
2026-05-06 17:45 35.54348 139.78889 25 ft 18 kts 240°
2026-05-06 17:45 35.54296 139.78780 25 ft 14 kts 239°
2026-05-06 17:46 35.54263 139.78711 25 ft 15 kts 239°
2026-05-06 17:46 35.54230 139.78642 26 ft 9 kts 240°
2026-05-06 17:46 35.54222 139.78565 25 ft 10 kts 293°
2026-05-06 17:46 35.54279 139.78510 26 ft 11 kts 329°
2026-05-06 17:47 35.54350 139.78458 26 ft 13 kts 329°
2026-05-06 17:47 35.54430 139.78401 24 ft 14 kts 329°
2026-05-06 17:47 35.54507 139.78345 26 ft 13 kts 329°
2026-05-06 17:47 35.54591 139.78288 24 ft 13 kts 331°
2026-05-06 17:48 35.54675 139.78289 24 ft 12 kts 20°
2026-05-06 17:48 35.54728 139.78313 24 ft 0 kts 20°